Location: Central Falls
(41.8900°N, 71.3929°W)
Time: 12:14:05
(UTC+00:00)

A-11 Canister half - Pass Details

Date: 07 December 2023
Orbit: 1512 x 1687 km, 47.2° (Epoch: 20 February)

Event Time Altitude Azimuth Distance (km) Brightness Sun altitude
Rises 07:05:02 0° 274° (W) 4,768 - -53.6°
Reaches altitude 10° 07:08:08 10° 278° (W) 3,807 - -53.1°
Maximum altitude 07:17:49 65° 359° (N) 1,779 - -51.4°
Exits shadow 07:22:08 38° 66° (ENE) 2,349 10.1 -50.6°
Drops below altitude 10° 07:27:51 10° 81° (E) 3,932 11.6 -49.6°
Sets 07:31:06 0° 85° (E) 4,931 12.3 -49.0°
